This is the latest recevied weather packets stored in our database for station/object N3TTT-13. If no packets are shown the sender has not sent any weather packets the latest 10 day(s).
| Time | Temp. | Humidity | Pressure | Rain* | Wind** | Luminosity | Snow |
|---|---|---|---|---|---|---|---|
| 1777730636 | 11.67° C | 71% | 1013.7 hPa | 0 mm | - | 230 W/m² | - |
| 1777730332 | 11.67° C | 73% | 1013.5 hPa | 0 mm | - | 295 W/m² | - |
| 1777730029 | 11.67° C | 73% | 1013.6 hPa | 0 mm | - | 234 W/m² | - |
| 1777729725 | 11.11° C | 73% | 1013.8 hPa | 0 mm | - | 205 W/m² | - |
| 1777729422 | 11.11° C | 73% | 1013.7 hPa | 0 mm | - | 193 W/m² | - |
| 1777729118 | 11.11° C | 73% | 1013.6 hPa | 0 mm | - | 206 W/m² | - |
| 1777728815 | 11.11° C | 72% | 1013.6 hPa | 0 mm | - | 214 W/m² | - |
| 1777728512 | 11.11° C | 73% | 1013.6 hPa | 0 mm | - | 185 W/m² | - |
| 1777728209 | 11.11° C | 73% | 1013.6 hPa | 0 mm | - | 203 W/m² | - |
| 1777727906 | 11.11° C | 74% | 1013.8 hPa | 0 mm | - | 208 W/m² | - |
| 1777727603 | 11.11° C | 75% | 1013.8 hPa | 0 mm | - | 221 W/m² | - |
| 1777727300 | 11.11° C | 74% | 1013.8 hPa | 0 mm | - | 260 W/m² | - |
| 1777726998 | 10.56° C | 74% | 1014 hPa | 0 mm | - | 229 W/m² | - |
| 1777726695 | 10.56° C | 74% | 1013.9 hPa | 0 mm | - | 189 W/m² | - |
| 1777726392 | 10.56° C | 74% | 1013.7 hPa | 0 mm | - | 160 W/m² | - |
| 1777726089 | 10.56° C | 74% | 1014 hPa | 0 mm | - | 125 W/m² | - |
| 1777725785 | 10.56° C | 75% | 1013.8 hPa | 0 mm | - | 132 W/m² | - |
| 1777725484 | 10.56° C | 75% | 1013.8 hPa | 0 mm | - | 110 W/m² | - |
| 1777725180 | 10.56° C | 76% | 1013.9 hPa | 0 mm | - | 116 W/m² | - |
| 1777724877 | 10.56° C | 77% | 1013.9 hPa | 0 mm | - | 113 W/m² | - |
| 1777724573 | 10.56° C | 77% | 1013.7 hPa | 0 mm | - | 111 W/m² | - |
| 1777724271 | 10.56° C | 77% | 1013.7 hPa | 0 mm | - | 129 W/m² | - |
| 1777723969 | 10.56° C | 78% | 1013.9 hPa | 0 mm | - | 146 W/m² | - |
| 1777723665 | 10.56° C | 79% | 1014 hPa | 0 mm | - | 102 W/m² | - |
| 1777723362 | 10.56° C | 80% | 1014 hPa | 0 mm | - | 125 W/m² | - |
* Rain latest hour (hover to see other rain measurements)
** Current wind speed in m/s (hover to see current wind gust speed)